Tekamah, NE

1:00 PM CDT on March 29, 2017 (GMT -0500)
Tekamah

Weather History for KTQE - January, 2013

Change the Weather History Date:

Tuesday, January 22, 2013

  Actual Average Record
Temperature  
Mean Temperature 14 °F -  
Max Temperature 18 °F 35 °F 58 °F (1992)
Min Temperature 10 °F 14 °F -11 °F (1966)
Degree Days  
Heating Degree Days 51    
Moisture  
Dew Point 4 °F    
Average Humidity 71    
Maximum Humidity 81    
Minimum Humidity 56    
Precipitation  
Precipitation 0.00 in - - ()
Sea Level Pressure  
Sea Level Pressure 30.38 in    
Wind  
Wind Speed 3 mph (SSE)    
Max Wind Speed 7 mph    
Max Gust Speed -    
Visibility 8 miles    
Events Snow    
Averages and records for this station are not official NWS values.
T = Trace of Precipitation, MM = Missing Value Source: NWS Daily Summary

Daily Weather History Graph

Daily Weather History Graph

Search for Another Location

Airport or City:

Trip Planner

Search our weather history database for the weather conditions in past years. The results will help you decide how hot, cold, wet, or windy it might be!

Date:

Astronomy

Jan. 22, 2013 Rise Set
Actual Time 7:45 AM CST 5:27 PM CST
Civil Twilight 7:15 AM CST 5:58 PM CST
Nautical Twilight 6:41 AM CST 6:31 PM CST
Astronomical Twilight 6:08 AM CST 7:05 PM CST
Moon 1:51 PM CST (1/22) 4:08 AM CST (1/22)
Length of Visible Light 10h 42m
Length of Day
9h 42m
Waxing Gibbous, 83% of the Moon is Illuminated
Jan 22
Waxing Gibbous
Jan 26
Full
Feb 3
Last Quarter
Feb 10
New
Feb 17
First Quarter

Hourly Weather History & Observations

Time (CST) Temp. Windchill Dew Point Humidity Pressure Visibility Wind Dir Wind Speed Gust Speed Precip Events Conditions
12:54 AM 10.0 °F 0.4 °F -2.0 °F 58% 30.42 in 10.0 mi North 5.8 mph - N/A   Overcast
1:54 AM 10.9 °F - -2.0 °F 56% 30.42 in 10.0 mi Calm Calm - N/A   Overcast
2:54 AM 10.9 °F - -2.0 °F 56% 30.42 in 10.0 mi Calm Calm - N/A   Overcast
3:54 AM 10.0 °F 3.6 °F -0.9 °F 61% 30.42 in 10.0 mi ESE 3.5 mph - N/A   Overcast
4:54 AM 10.0 °F 3.6 °F -0.0 °F 64% 30.40 in 8.0 mi SSE 3.5 mph - N/A   Overcast
5:35 AM 10.4 °F - 1.4 °F 67% 30.35 in 1.8 mi Calm Calm - 0.00 in Snow Light Snow
5:54 AM 10.0 °F - 3.0 °F 73% 30.41 in 2.5 mi Calm Calm - 0.00 in Snow Light Snow
6:09 AM 10.4 °F - 3.2 °F 73% 30.35 in 1.2 mi Calm Calm - 0.00 in Snow Light Snow
6:44 AM 10.4 °F - 3.2 °F 73% 30.37 in 1.2 mi Calm Calm - 0.00 in Snow Light Snow
6:54 AM 10.0 °F - 3.9 °F 76% 30.43 in 1.2 mi Calm Calm - 0.00 in Snow Light Snow
7:16 AM 10.4 °F 4.0 °F 3.2 °F 73% 30.38 in 3.0 mi ENE 3.5 mph - 0.00 in Snow Light Snow
7:54 AM 10.0 °F 3.6 °F 3.9 °F 76% 30.44 in 10.0 mi SSE 3.5 mph - 0.00 in   Overcast
8:54 AM 10.9 °F - 3.9 °F 73% 30.45 in 10.0 mi Calm Calm - N/A   Overcast
9:54 AM 10.9 °F 1.4 °F 3.0 °F 70% 30.44 in 10.0 mi SSE 5.8 mph - N/A   Overcast
10:54 AM 12.0 °F 2.7 °F 1.9 °F 64% 30.45 in 10.0 mi SSE 5.8 mph - N/A   Overcast
11:54 AM 12.9 °F 3.8 °F 5.0 °F 71% 30.43 in 10.0 mi South 5.8 mph - N/A   Overcast
12:54 PM 14.0 °F 3.9 °F 7.0 °F 74% 30.40 in 9.0 mi SSE 6.9 mph - N/A   Overcast
1:54 PM 15.1 °F 7.7 °F 7.0 °F 70% 30.37 in 10.0 mi SSE 4.6 mph - N/A   Overcast
2:54 PM 17.1 °F 8.7 °F 9.0 °F 71% 30.35 in 10.0 mi SSE 5.8 mph - N/A   Overcast
3:54 PM 17.1 °F 8.7 °F 9.0 °F 71% 30.33 in 10.0 mi SSE 5.8 mph - N/A   Scattered Clouds
4:54 PM 18.0 °F 9.8 °F 9.0 °F 68% 30.33 in 10.0 mi SE 5.8 mph - N/A   Clear
5:54 PM 15.1 °F 6.4 °F 8.1 °F 74% 30.33 in 10.0 mi ESE 5.8 mph - N/A   Clear
6:54 PM 14.0 °F 5.1 °F 8.1 °F 77% 30.32 in 10.0 mi SE 5.8 mph - N/A   Clear
7:54 PM 14.0 °F 3.9 °F 8.1 °F 77% 30.32 in 10.0 mi SSE 6.9 mph - N/A   Clear
8:54 PM 12.9 °F 5.2 °F 7.0 °F 77% 30.32 in 10.0 mi SSE 4.6 mph - N/A   Clear
9:54 PM 12.0 °F 4.1 °F 7.0 °F 80% 30.31 in 10.0 mi South 4.6 mph - N/A   Clear
10:54 PM 10.9 °F 2.9 °F 6.1 °F 81% 30.32 in 10.0 mi South 4.6 mph - N/A   Clear
11:54 PM 10.9 °F 2.9 °F 6.1 °F 81% 30.30 in 10.0 mi South 4.6 mph - N/A   Clear